Search your local weather  

 

Hazardous Weather Conditions

No active alerts for PHILADELPHIA, PENNSYLVANIA

Current Conditions: PHILADELPHIA, PENNSYLVANIA

Fair


46.0 F

Last Updated on Feb 16 2019, 1:54 pm EST
Humidity: 35%
Wind Speed: NW 10.4 mph
Barometer 29.88 in
Dewpoint: 19.9 F
Visibility: 10.00 mi
Precip: --
Heat Index: NA
Wind Chill: 41 F
Current conditions at:

Philadelphia, Northeast Philadelphia Airport, PA (KPNE)

Lat: 40.07 Lon: -75.013

Local Radar Image active severe weather and emergency alerts image image weather storm and storm spotter reports image weather observation monitoring service image
Local
Radar
Active
Alerts
Storm Reports Weather
Monitoring

Weather Alert Notification Services


ialert severe weather and emergency alerts by text message and email ialert daily weather forecast by email and text message service ialert real-time weather-observation monitoring and alert notification service ialert storm report monitoring alert notification

Observation History for PHILADELPHIA, PENNSYLVANIA


Time Wind
(mph)
Vis
(mi)
Weather Precip (in) Temperature (F) Relative
Humidity
Wind
Chill
(°F)
Heat
Index
(°F)
Pressure
Air Dwpt altimeter
(in)
sea level
(mb)
1:54 pm EST NW 10.4 10.00 Fair -- 46.0 19.9 35% 41 NA 29.88 1011.7
12:54 pm EST NW 12.7 G 20.7 10.00 Fair -- 45.0 21.9 40% 39 NA 29.89 1012.3
11:54 am EST NW 9.2 10.00 Fair -- 44.0 19.9 38% 39 NA 29.91 1012.8
10:54 am EST NW 11.5 G 20.7 10.00 Fair -- 42.0 19.0 40% 36 NA 29.92 1013.3
9:54 am EST N 9.2 10.00 Fair -- 40.0 19.0 43% 34 NA 29.92 1013.2
8:54 am EST NW 16.1 10.00 Fair -- 39.0 18.0 43% 30 NA 29.91 1012.9
7:54 am EST NW 6.9 10.00 Fair -- 38.0 19.9 48% 33 NA 29.90 1012.6
6:54 am EST NW 8.1 10.00 Fair -- 37.0 19.0 48% 31 NA 29.88 1011.7
5:54 am EST NW 8.1 10.00 Fair -- 39.0 19.0 45% 33 NA 29.85 1010.8
4:54 am EST NW 12.7 10.00 Overcast -- 41.0 19.0 41% 34 NA 29.83 1009.9
3:54 am EST NW 9.2 10.00 Overcast -- 43.0 17.1 35% 38 NA 29.82 1009.6
2:54 am EST NW 13.8 G 20.7 10.00 Overcast -- 44.0 12.9 28% 37 NA 29.79 1008.8
1:54 am EST W 10.4 G 18.4 10.00 A Few Clouds -- 46.0 18.0 33% 41 NA 29.78 1008.5
12:54 am EST NW 6.9 10.00 Fair -- 48.0 21.0 34% 45 NA 29.78 1008.5
11:54 pm EST NW 10.4 10.00 Partly Cloudy -- 51.0 21.0 31% 47 NA 29.77 1007.9
10:54 pm EST NW 10.4 G 20.7 10.00 Partly Cloudy -- 54.0 28.0 37% 51 NA 29.74 1006.9
9:54 pm EST W 8.1 10.00 Overcast -- 58.0 37.0 46% 56 NA 29.72 1006.2
8:54 pm EST W 9.2 10.00 Overcast -- 58.0 39.9 51% 56 NA 29.69 1005.4
7:54 pm EST SW 9.2 10.00 Overcast -- 59.0 39.9 49% 57 NA 29.66 1004.4
6:54 pm EST SW 8.1 10.00 Partly Cloudy -- 60.0 39.9 48% 59 NA 29.66 1004.1
5:54 pm EST SW 10.4 10.00 Fair -- 60.0 39.9 48% 58 NA 29.64 1003.6
4:54 pm EST SW 10.4 G 18.4 10.00 Mostly Cloudy -- 62.0 39.0 43% 61 NA 29.64 1003.5
3:54 pm EST SW 12.7 G 23.0 10.00 Overcast -- 62.0 37.9 41% 60 NA 29.63 1003.4
2:54 pm EST SW 15.0 G 21.9 10.00 Partly Cloudy -- 63.0 37.9 40% 61 NA 29.64 1003.8

Regional Weather Observation

Pottstown, Pottstown Limerick Airport, PA (KPTW)

Fair
40.0 F

Doylestown, Doylestown Airport, PA (KDYL)

Fair
43.0 F

Quakertown Airport, PA (KUKT)

Fair
41.0 F

Allentown Queen City Municipal Airport, PA (KXLL)

NULL
59.0 F

Reading, Reading Regional Airport, PA (KRDG)

Fair
42.0 F

Philadelphia, Philadelphia International Airport, PA (KPHL)

Partly Cloudy
44.0 F

Advertise Here


Advertise Here